Location: C�mpuri de-Sus
(45.9500°N, 22.5500°E)
Time: 13:31:53
(UTC+00:00)

Cosmos 2346 Rocket - Pass Details

Date: 24 October 2021
Orbit: 937 x 980 km, 82.9° (Epoch: 07 December)

Event Time Altitude Azimuth Distance (km) Brightness Sun altitude
Rises 17:44:33 0° 353° (N) 3,683 7.7 -24.3°
Reaches altitude 10° 17:47:06 10° 357° (N) 2,735 7.0 -24.7°
Maximum altitude 17:53:20 65° 79° (ENE) 1,074 4.4 -25.8°
Enters shadow 17:53:51 62° 105° (ESE) 1,093 4.4 -25.9°
